Le nostre stazioni meteo in Italia

Pubblicità
Il mio iltempo24.it
Braemar, Gran Bretagna (99089): Temperatura & dewpoint: 22.06.2017 23:00:00 - 28.06.2017 23:00:00 (BST)Braemar, Gran Bretagna (99089): Temperatura -20cm & Temperatura -100cm: 22.06.2017 23:00:00 - 28.06.2017 23:00:00 (BST)Braemar, Gran Bretagna (99089): velocità del vento: 22.06.2017 23:00:00 - 28.06.2017 23:00:00 (BST)Braemar, Gran Bretagna (99089): direzione del vento: 22.06.2017 23:00:00 - 28.06.2017 23:00:00 (BST)Braemar, Gran Bretagna (99089): visibility: 22.06.2017 23:00:00 - 28.06.2017 23:00:00 (BST)Braemar, Gran Bretagna (99089): precipitazioni: 22.06.2017 23:00:00 - 28.06.2017 23:00:00 (BST)
Data & Tempo tt [°C] td [°C] tt -20cm [°C] tt -100cm [°C] ff [km/h] ff [kn] dd vv [km] rr [mm]
28.06.2017 23:00:00 7,9 3,8 - - - - - - 0,0
28.06.2017 22:00:00 8,4 4,2 - - - - - - 0,0
28.06.2017 21:00:00 9,1 4,2 - - - - - - 0,0
28.06.2017 20:00:00 10,2 5,0 - - - - - - 0,0
28.06.2017 19:00:00 10,6 5,5 - - - - - - 0,0
28.06.2017 18:00:00 10,7 6,3 - - - - - - 0,0
28.06.2017 17:00:00 10,9 5,5 - - - - - - 0,0
28.06.2017 16:00:00 10,7 6,2 - - - - - - 0,0
28.06.2017 15:00:00 10,8 6,5 - - - - - - 0,0
28.06.2017 14:00:00 11,1 7,1 - - - - - - 0,0
28.06.2017 13:00:00 10,6 7,5 - - - - - - 0,0
28.06.2017 12:00:00 10,9 7,2 - - - - - - 0,0
28.06.2017 11:00:00 9,8 7,5 - - - - - - 0,0
28.06.2017 10:00:00 9,4 7,4 12,7 12,2 - - N 29 0,0
28.06.2017 09:00:00 9,1 7,6 - - - - - - 0,0
28.06.2017 08:00:00 8,8 7,7 - - - - - - 0,0
28.06.2017 07:00:00 8,8 7,7 - - - - - - 0,0
28.06.2017 06:00:00 8,6 7,7 - - - - - - 0,0
28.06.2017 05:00:00 8,4 7,8 - - - - - - 0,0
28.06.2017 04:00:00 8,5 7,7 - - - - - - 0,0
28.06.2017 03:00:00 8,5 7,6 - - - - - - 0,0
28.06.2017 02:00:00 8,4 7,7 - - - - - - 0,0
28.06.2017 01:00:00 8,4 7,7 - - - - - - 0,0
28.06.2017 00:00:00 8,1 7,6 - - - - - - 1,0
27.06.2017 23:00:00 8,4 7,4 - - - - - - 0,0
27.06.2017 22:00:00 8,5 7,2 - - - - - - 0,0
27.06.2017 21:00:00 8,8 7,6 - - - - - - 0,0
27.06.2017 20:00:00 9,1 7,8 - - - - - - 0,0
27.06.2017 19:00:00 9,3 8,2 - - - - - - 0,8
27.06.2017 18:00:00 9,4 8,1 - - - - - - 2,8
27.06.2017 17:00:00 9,2 8,4 - - - - - - 0,6
27.06.2017 16:00:00 9,1 8,2 - - - - - - 0,2
27.06.2017 15:00:00 9,2 8,1 - - - - - - 0,4
27.06.2017 14:00:00 8,9 7,6 - - - - - - 0,4
27.06.2017 13:00:00 8,8 7,5 - - - - - - 0,2
27.06.2017 12:00:00 9,0 7,3 - - - - - - 0,6
27.06.2017 11:00:00 8,5 7,3 - - - - - - 2,0
27.06.2017 10:00:00 8,5 7,2 13,7 12,2 - - N 21 0,8
27.06.2017 09:00:00 8,5 7,4 - - - - - - 0,8
27.06.2017 08:00:00 8,0 7,2 - - - - - - 0,4
27.06.2017 07:00:00 7,7 6,9 - - - - - - 0,4
27.06.2017 06:00:00 7,7 6,5 - - - - - - 0,0
27.06.2017 05:00:00 7,6 6,2 - - - - - - 0,0
27.06.2017 04:00:00 7,5 6,6 - - - - - - 0,0
27.06.2017 03:00:00 7,6 6,8 - - - - - - 0,0
27.06.2017 02:00:00 7,8 7,0 - - - - - - 0,0
27.06.2017 01:00:00 7,9 7,2 - - - - - - 0,0
27.06.2017 00:00:00 8,1 7,3 - - - - - - 0,2
26.06.2017 23:00:00 8,7 7,3 - - - - - - 0,0
26.06.2017 22:00:00 9,1 7,2 - - - - - - 0,0
26.06.2017 21:00:00 9,6 8,6 - - - - - - 0,0
26.06.2017 20:00:00 10,0 8,5 - - - - - - 1,6
26.06.2017 19:00:00 11,1 8,9 - - - - - - 0,0
26.06.2017 18:00:00 11,2 9,2 - - - - - - 0,6
26.06.2017 17:00:00 11,7 8,4 - - - - - - 0,6
26.06.2017 16:00:00 13,3 6,3 - - - - - - 0,0
26.06.2017 15:00:00 13,2 6,3 - - - - - - 0,0
26.06.2017 14:00:00 13,5 5,7 - - - - - - 0,0
26.06.2017 13:00:00 13,3 5,8 - - - - - - 0,0
26.06.2017 12:00:00 12,4 6,3 - - - - - - 0,0
26.06.2017 11:00:00 11,4 5,4 - - - - - - 0,0
26.06.2017 10:00:00 10,3 5,8 13,7 12,4 - - N 8 0,2
26.06.2017 09:00:00 9,2 6,4 - - - - - - 0,2
26.06.2017 08:00:00 9,6 6,7 - - - - - - 0,0
26.06.2017 07:00:00 8,1 7,0 - - - - - - 0,0
26.06.2017 06:00:00 7,4 6,5 - - - - - - 0,0
26.06.2017 05:00:00 7,5 6,6 - - - - - - 0,2
26.06.2017 04:00:00 7,6 6,6 - - - - - - 0,2
26.06.2017 03:00:00 7,8 6,4 - - - - - - 0,0
26.06.2017 02:00:00 7,7 6,0 - - - - - - 0,0
26.06.2017 01:00:00 7,6 5,7 - - - - - - 0,0
26.06.2017 00:00:00 7,7 5,0 - - - - - - 0,0
25.06.2017 23:00:00 9,4 4,5 - - - - - - 0,0
25.06.2017 22:00:00 8,9 5,4 - - - - - - 0,0
25.06.2017 21:00:00 10,3 6,5 - - - - - - 0,0
25.06.2017 20:00:00 10,9 4,5 - - - - - - 0,0
25.06.2017 19:00:00 11,6 5,8 - - - - - - 0,0
25.06.2017 18:00:00 11,9 6,0 - - - - - - 0,2
25.06.2017 17:00:00 11,3 6,7 - - - - - - 0,0
25.06.2017 16:00:00 12,2 7,1 - - - - - - 0,4
25.06.2017 15:00:00 12,0 6,4 - - - - - - 0,0
25.06.2017 14:00:00 12,4 6,1 - - - - - - 0,2
25.06.2017 13:00:00 12,8 5,2 - - - - - - 0,0
25.06.2017 12:00:00 12,0 5,2 - - - - - - 0,0
25.06.2017 11:00:00 11,8 5,1 - - - - - - 0,0
25.06.2017 10:00:00 11,5 3,9 14,0 12,5 - - N 9 0,0
25.06.2017 09:00:00 12,0 5,5 - - - - - - 0,0
25.06.2017 08:00:00 9,5 5,1 - - - - - - 0,0
25.06.2017 07:00:00 9,0 4,9 - - - - - - 0,0
25.06.2017 06:00:00 8,1 5,4 - - - - - - 0,0
25.06.2017 05:00:00 8,1 6,4 - - - - - - 0,2
25.06.2017 04:00:00 7,9 6,3 - - - - - - -
25.06.2017 03:00:00 7,8 6,3 - - - - - - 0,2
25.06.2017 02:00:00 8,2 5,7 - - - - - - 0,0
25.06.2017 01:00:00 8,7 5,2 - - - - - - 0,0
25.06.2017 00:00:00 8,7 4,7 - - - - - - 0,0
24.06.2017 23:00:00 8,4 4,0 - - - - - - 0,0
24.06.2017 22:00:00 9,3 3,8 - - - - - - 0,0
24.06.2017 21:00:00 9,8 4,1 - - - - - - 0,0
24.06.2017 20:00:00 10,4 4,8 - - - - - - 0,0
24.06.2017 19:00:00 10,5 5,0 - - - - - - 0,0
24.06.2017 18:00:00 11,1 5,4 - - - - - - 0,0
24.06.2017 17:00:00 11,5 5,4 - - - - - - 0,0
24.06.2017 16:00:00 12,0 6,9 - - - - - - 0,0
24.06.2017 15:00:00 11,6 6,3 - - - - - - 0,0
24.06.2017 14:00:00 10,0 6,8 - - - - - - 0,0
24.06.2017 13:00:00 11,3 4,9 - - - - - - 0,0
24.06.2017 12:00:00 12,0 5,3 - - - - - - 0,0
24.06.2017 11:00:00 11,6 4,7 - - - - - - 0,0
24.06.2017 10:00:00 11,3 4,5 14,9 12,5 137 74 N 9 0,0
24.06.2017 09:00:00 10,8 4,7 - - - - - - 0,0
24.06.2017 08:00:00 10,7 5,2 - - - - - - 0,0
24.06.2017 07:00:00 9,8 4,5 - - - - - - 0,0
24.06.2017 06:00:00 8,7 5,4 - - - - - - 0,0
24.06.2017 05:00:00 8,9 4,0 - - - - - - 0,0
24.06.2017 04:00:00 8,7 3,6 - - - - - - 0,0
24.06.2017 03:00:00 9,5 4,2 - - - - - - 0,0
24.06.2017 02:00:00 9,7 5,0 - - - - - - 0,0
24.06.2017 01:00:00 9,4 4,3 - - - - - - 0,0
24.06.2017 00:00:00 9,8 4,4 - - - - - - 0,0
23.06.2017 23:00:00 10,0 5,1 - - - - - - 0,0
23.06.2017 22:00:00 10,7 4,7 - - - - - 10 0,0
23.06.2017 21:00:00 11,4 4,9 - - - - - - 0,0
23.06.2017 20:00:00 12,2 4,8 - - - - - - 0,0
23.06.2017 19:00:00 13,0 5,4 - - - - - - 0,0
23.06.2017 18:00:00 15,0 6,3 - - - - - - 0,0
23.06.2017 17:00:00 16,0 7,2 - - - - - - 0,0
23.06.2017 16:00:00 16,2 6,6 - - - - - - 0,0
23.06.2017 15:00:00 15,9 6,1 - - - - - - 0,0
23.06.2017 14:00:00 15,2 7,5 - - - - - - 0,0
23.06.2017 13:00:00 14,6 8,6 - - - - - - 0,0
23.06.2017 12:00:00 14,5 8,4 - - - - - - 0,0
23.06.2017 11:00:00 14,4 8,2 - - - - - - 0,0
23.06.2017 10:00:00 15,2 10,2 15,2 12,4 47 25 N 0,1 0,0
23.06.2017 09:00:00 14,5 10,6 - - - - - - 0,0
23.06.2017 08:00:00 13,4 10,4 - - - - - - 0,0
23.06.2017 07:00:00 12,7 10,3 - - - - - - 0,0
23.06.2017 06:00:00 12,3 9,7 - - - - - - 0,0
23.06.2017 05:00:00 11,7 9,4 - - - - - - 0,0
23.06.2017 04:00:00 12,2 9,1 - - - - - - 0,0
23.06.2017 03:00:00 11,7 9,0 - - - - - - 0,0
23.06.2017 02:00:00 11,4 9,2 - - - - - - 0,0
23.06.2017 01:00:00 11,0 9,3 - - - - - - 0,6
23.06.2017 00:00:00 11,2 9,0 - - - - - - 0,2
22.06.2017 23:00:00 10,8 9,4 - - - - - - 0,6

tt = Temperatura
td = dewpoint
tt -20cm = Temperatura -20cm
tt -100cm = Temperatura -100cm
ff = velocità del vento
dd = direzione del vento
vv = visibility
rr = precipitazioni

Stazioni seguenti

WeatherPro
AMSI
MeteoEarth